Wind_Speed
44 46 49 53 57 61 65 68 72 75 78 80 82 84 86 89 92 94 97 99 100 101 101 99 96 92 86 81 76 72 71 73 75 70 67 65 64 65 65 67 69 70 70
46 50 54 58 62 66 70 73 76 79 81 83 85 87 90 92 95 97 99 100 100 99 96 92 87 82 77 73 71 70 70 72 74 73 68 66 65 65 66 66 66 67 67
52 56 60 64 68 71 74 76 78 80 82 85 88 90 93 95 98 99 99 98 96 92 89 84 81 78 76 74 74 74 75 75 77 79 76 72 70 68 69 68 67 66 65
58 61 65 68 71 74 76 78 80 82 85 88 91 94 96 97 98 97 95 92 88 85 83 81 81 81 81 82 81 82 83 83 83 85 84 81 77 74 74 73 70 67 65
62 65 69 71 74 76 78 80 83 86 89 92 94 96 96 95 93 91 89 86 85 84 83 84 86 87 88 90 90 90 90 91 90 90 89 86 82 78 77 75 74 69 65
65 68 71 73 75 78 81 83 86 89 91 93 94 94 92 90 88 87 88 88 88 89 89 89 90 91 92 93 94 94 94 94 93 91 88 85 80 75 73 71 71 69 64
67 70 73 75 78 81 83 86 88 91 92 92 91 89 87 86 86 88 90 92 92 91 90 89 87 86 87 88 87 87 86 84 84 83 80 75 70 65 63 61 62 62 60
70 72 75 78 80 83 86 88 90 91 90 89 87 85 84 85 88 91 92 90 87 83 80 78 76 74 73 74 73 71 69 65 64 64 63 61 58 54 51 50 51 53 54
72 75 77 80 82 85 87 88 89 88 85 83 82 83 84 87 90 90 88 83 78 73 70 69 68 65 63 62 61 58 53 49 47 47 47 47 46 43 41 40 40 43 44
74 77 79 81 84 86 87 87 86 84 82 80 80 84 88 90 88 85 81 77 73 69 65 62 60 58 55 53 51 48 43 38 34 32 32 33 33 32 31 31 32 33 35
75 78 80 83 85 85 85 84 82 80 79 80 82 85 88 88 84 78 74 71 68 64 61 57 54 51 48 46 44 42 38 32 26 21 19 20 22 23 23 24 25 25 24
76 79 81 83 84 83 82 80 78 78 79 81 83 85 85 82 77 71 67 64 62 60 57 53 50 48 45 42 40 36 32 26 19 14 11 11 13 15 17 19 19 19 17
77 80 82 82 81 80 78 77 77 78 80 83 86 86 82 75 70 66 62 59 56 53 50 47 46 45 42 39 36 32 26 19 13 10 8 8 10 12 13 14 14 13 12
79 81 81 80 78 76 75 75 76 78 81 84 86 84 78 71 66 62 58 55 51 48 45 42 41 40 38 36 31 25 18 13 11 10 8 8 9 10 10 10 10 10 10
80 81 79 77 75 73 72 73 76 78 82 86 86 82 75 69 64 60 57 53 50 46 43 40 38 35 33 30 25 18 13 11 13 13 12 10 7 7 7 7 7 7 8
80 78 76 74 73 72 71 71 74 78 81 85 82 77 71 66 63 58 54 51 47 43 40 38 35 31 28 22 14 10 10 13 15 15 12 8 5 4 4 4 4 4 4
78 76 74 72 71 71 72 73 73 75 79 81 76 69 65 62 59 55 51 48 44 40 38 35 30 26 20 12 7 8 11 15 16 13 8 6 4 3 2 1 1 2 3
75 73 71 70 69 70 72 74 76 78 79 77 69 63 60 57 54 50 47 44 39 36 34 30 25 19 11 7 7 10 14 15 13 9 6 5 4 4 3 3 3 4 5
71 69 67 67 68 70 73 75 78 80 80 74 65 58 55 51 47 44 43 40 35 31 28 24 19 11 5 6 9 13 14 12 9 7 7 7 7 7 6 5 4 4 4
67 66 65 66 68 71 73 76 79 80 77 69 60 55 50 46 42 39 36 33 30 26 22 18 12 5 4 7 11 13 11 9 9 9 10 11 10 9 7 4 1 2 5
64 63 64 67 69 72 75 78 80 78 72 62 55 51 48 44 40 35 31 27 24 20 16 11 4 3 5 9 11 11 10 11 12 13 14 13 11 9 6 5 5 7 9
62 62 65 68 71 74 77 79 79 73 65 56 50 47 44 41 36 31 26 23 20 15 10 4 3 4 6 9 9 11 13 15 16 16 15 14 12 10 9 10 11 12 13
62 64 66 70 73 76 78 78 73 65 57 51 46 44 40 35 29 24 20 17 15 10 4 5 5 5 7 10 13 16 18 19 18 17 17 16 15 15 14 15 15 15 16
63 66 69 72 75 77 76 72 65 57 51 46 43 40 36 29 23 18 15 12 9 3 6 8 7 8 12 16 19 21 22 22 21 21 20 20 19 18 18 18 17 17 17
66 69 72 75 77 76 71 64 57 51 46 43 40 36 30 22 16 12 9 7 3 7 11 10 10 15 19 23 25 26 26 24 23 23 23 23 23 23 22 21 19 19 18
70 73 75 76 75 70 63 56 50 45 42 39 36 30 22 14 9 6 4 2 8 13 14 14 18 22 25 28 29 29 27 26 26 26 27 27 27 26 26 24 23 22 21
Wind_Direction
298 300 302 304 306 307 308 308 308 308 307 306 306 305 304 303 303 303 302 302 301 301 301 300 299 298 296 294 293 291 290 289 289 289 287 284 281 277 272 268 264 262 261
300 303 305 306 308 309 309 309 309 308 307 306 306 305 304 304 304 303 303 303 302 302 301 299 298 296 294 293 291 290 289 288 288 289 288 286 284 281 277 272 268 265 262
303 305 307 308 309 310 310 309 309 308 307 306 306 306 306 305 305 305 304 304 303 302 300 298 296 294 293 291 290 289 288 287 288 288 289 288 285 282 278 275 271 268 264
307 308 309 310 310 310 310 309 309 308 308 307 307 308 308 307 307 306 306 304 303 301 299 297 295 293 291 290 288 287 286 286 286 287 287 287 285 282 279 275 271 267 264
308 309 310 310 311 310 310 310 309 309 309 309 309 310 310 309 308 307 306 304 303 301 298 296 294 292 290 289 287 286 285 285 285 285 286 285 284 281 277 274 270 266 262
309 310 310 310 311 311 310 310 310 310 311 311 311 312 311 310 309 308 307 305 304 302 300 297 294 292 290 288 287 286 285 285 285 285 285 285 284 282 278 273 269 265 260
309 310 310 311 311 311 311 311 311 312 313 313 313 313 312 311 310 309 308 307 306 305 303 301 298 296 293 290 288 286 285 285 285 285 285 286 285 282 278 273 268 263 258
310 310 311 311 311 311 312 312 313 314 314 314 314 313 313 313 312 311 311 310 310 309 308 307 306 303 300 297 293 290 288 286 285 285 286 287 286 283 279 274 267 261 256
310 310 311 311 312 312 313 314 315 315 315 314 314 314 315 315 315 315 314 314 313 314 314 313 311 308 305 302 299 297 294 291 289 288 288 286 285 283 279 274 268 261 254
310 310 311 312 313 314 315 316 316 316 315 315 315 317 318 318 318 317 316 316 316 316 317 316 314 312 310 308 306 305 302 299 295 290 286 285 284 283 280 276 271 264 258
310 311 313 314 315 316 317 316 316 315 315 316 318 319 320 320 319 318 317 317 317 319 319 318 317 315 315 313 312 311 310 308 304 297 287 280 278 279 278 277 276 273 265
312 314 315 316 317 317 317 316 316 316 317 318 320 321 321 321 319 319 318 318 318 320 321 320 319 318 318 317 315 314 313 312 312 306 294 281 274 274 277 278 278 277 272
314 316 317 317 317 317 317 316 316 317 318 320 321 322 322 321 320 319 319 318 318 319 321 320 319 318 318 317 315 314 314 316 319 319 312 294 280 276 277 277 277 274 268
316 317 317 317 317 317 316 316 317 319 320 322 323 324 323 322 320 320 319 318 318 319 320 320 319 319 318 318 317 316 318 325 332 334 328 310 294 283 278 276 272 266 261
317 317 317 317 316 316 316 317 318 320 322 324 325 324 323 322 322 321 321 320 320 321 322 322 321 319 318 316 316 317 324 334 337 334 330 323 307 287 280 278 270 261 256
318 317 317 316 316 316 316 317 319 321 323 325 325 324 322 322 323 322 321 321 320 320 321 322 322 321 320 319 318 325 336 338 334 331 331 331 317 296 289 282 276 260 246
317 317 316 315 315 315 316 317 319 321 324 325 324 322 321 322 322 321 320 320 320 320 322 323 323 324 325 326 335 344 341 335 333 336 342 348 348 344 331 300 176 165 168
316 315 314 314 315 315 317 318 320 322 324 326 324 321 320 322 322 320 318 318 319 320 322 323 325 328 330 340 349 346 340 337 339 348 0 12 27 44 67 101 124 140 155
314 313 313 314 315 316 317 319 321 324 325 325 324 321 321 322 321 319 317 317 319 321 322 323 327 334 345 354 349 346 346 352 4 23 39 48 58 70 80 97 116 147 187
313 312 313 314 315 317 319 320 322 324 325 324 323 322 322 322 320 319 318 317 319 322 324 325 332 352 8 355 350 353 4 23 46 58 62 66 71 73 72 75 86 259 265
312 312 313 315 316 318 320 321 323 324 324 323 322 322 323 323 321 320 320 320 322 325 325 329 354 39 12 357 0 16 43 61 70 72 72 70 65 56 41 12 335 313 302
312 313 314 316 317 319 320 321 323 323 323 322 322 322 322 322 320 318 319 320 325 329 331 356 76 52 16 13 33 61 74 80 81 77 73 65 53 36 17 360 345 334 326
312 313 315 317 319 320 321 321 322 322 322 321 321 322 322 320 317 317 318 321 328 334 2 96 94 55 40 63 81 87 88 86 83 77 68 57 44 29 14 1 350 340 332
313 314 316 318 319 320 320 321 321 321 321 320 321 321 321 318 315 316 320 326 336 14 106 112 94 75 88 95 97 95 92 88 82 73 63 51 39 26 15 5 358 352 349
314 315 317 318 319 320 320 320 320 320 320 320 321 321 319 314 312 316 324 338 30 114 122 114 102 105 106 105 102 99 94 87 79 69 58 48 38 30 24 19 17 17 19
315 316 317 318 319 319 319 319 319 319 320 320 320 319 316 309 306 313 332 59 120 128 125 117 116 115 112 109 106 100 94 86 76 66 58 50 43 39 37 37 39 42 48
Height
5720 5716 5711 5705 5699 5693 5686 5679 5671 5662 5654 5645 5635 5625 5615 5605 5594 5583 5572 5561 5550 5538 5526 5515 5504 5493 5484 5475 5467 5459 5450 5439 5429 5436 5440 5441 5439 5437 5436 5434 5432 5432 5434
5710 5705 5699 5693 5687 5680 5672 5663 5654 5645 5636 5626 5616 5605 5594 5583 5571 5559 5548 5536 5524 5512 5501 5490 5479 5469 5461 5453 5446 5439 5431 5423 5412 5410 5417 5418 5417 5414 5411 5410 5409 5409 5411
5699 5693 5687 5680 5672 5664 5656 5647 5638 5628 5618 5607 5596 5584 5573 5560 5547 5534 5522 5510 5498 5486 5475 5465 5455 5446 5439 5432 5424 5417 5410 5403 5394 5386 5389 5393 5393 5391 5386 5386 5386 5387 5389
5686 5680 5673 5665 5657 5648 5639 5630 5620 5610 5599 5587 5575 5562 5548 5535 5521 5508 5496 5485 5474 5463 5453 5442 5432 5423 5414 5407 5400 5393 5385 5379 5373 5366 5363 5364 5366 5366 5360 5359 5361 5364 5367
5673 5665 5657 5649 5640 5631 5621 5611 5601 5590 5578 5565 5553 5539 5524 5509 5496 5482 5471 5461 5451 5441 5431 5420 5409 5398 5387 5378 5370 5365 5357 5351 5346 5341 5337 5335 5336 5336 5333 5331 5331 5338 5344
5658 5650 5642 5633 5623 5614 5604 5593 5582 5570 5557 5543 5529 5515 5501 5485 5472 5459 5445 5436 5426 5414 5404 5394 5382 5370 5358 5349 5340 5332 5326 5320 5315 5311 5309 5306 5306 5305 5303 5302 5303 5309 5318
5643 5635 5626 5616 5606 5596 5585 5574 5562 5549 5535 5521 5506 5492 5479 5465 5451 5438 5424 5411 5399 5386 5373 5361 5350 5339 5326 5315 5309 5303 5299 5292 5285 5280 5280 5279 5278 5277 5276 5277 5278 5281 5290
5627 5618 5609 5600 5589 5577 5565 5553 5540 5527 5514 5500 5486 5472 5460 5447 5431 5416 5401 5388 5374 5361 5347 5333 5321 5311 5299 5286 5279 5276 5273 5270 5263 5259 5257 5255 5254 5254 5253 5254 5256 5260 5268
5612 5602 5592 5582 5571 5558 5546 5532 5519 5507 5494 5481 5468 5453 5440 5427 5410 5393 5376 5364 5353 5342 5330 5316 5301 5290 5280 5268 5259 5255 5253 5251 5247 5244 5241 5238 5236 5236 5236 5237 5239 5242 5249
5596 5586 5575 5564 5551 5538 5525 5512 5499 5487 5475 5463 5451 5435 5419 5404 5389 5372 5356 5344 5334 5325 5315 5303 5289 5276 5265 5255 5246 5240 5237 5235 5234 5232 5229 5226 5225 5224 5225 5225 5226 5229 5234
5579 5568 5556 5544 5531 5518 5505 5492 5480 5469 5458 5447 5435 5421 5403 5385 5370 5356 5342 5328 5317 5309 5299 5289 5278 5267 5257 5247 5239 5232 5227 5224 5222 5221 5220 5219 5218 5217 5218 5218 5219 5220 5224
5562 5550 5538 5525 5512 5499 5487 5475 5462 5450 5439 5428 5416 5404 5388 5370 5355 5342 5330 5317 5304 5295 5286 5276 5266 5257 5248 5240 5232 5226 5221 5217 5215 5214 5214 5214 5213 5213 5213 5214 5215 5216 5218
5544 5532 5520 5507 5494 5481 5469 5458 5447 5434 5422 5410 5397 5385 5372 5357 5343 5330 5319 5307 5296 5286 5277 5267 5257 5248 5241 5234 5227 5221 5217 5214 5212 5211 5211 5211 5210 5210 5210 5211 5212 5213 5215
5528 5515 5503 5491 5479 5467 5454 5442 5430 5418 5406 5393 5379 5366 5354 5342 5329 5318 5308 5298 5288 5279 5270 5261 5251 5242 5234 5228 5222 5218 5214 5211 5210 5209 5209 5209 5208 5208 5208 5209 5210 5211 5213
5511 5498 5486 5474 5463 5453 5442 5429 5416 5405 5389 5375 5361 5347 5335 5326 5316 5304 5293 5285 5276 5268 5260 5253 5245 5238 5231 5225 5220 5216 5213 5212 5210 5209 5207 5207 5207 5206 5207 5207 5208 5210 5212
5494 5482 5470 5459 5448 5438 5428 5420 5407 5392 5379 5362 5346 5333 5322 5312 5302 5292 5283 5274 5266 5259 5252 5246 5239 5232 5226 5222 5218 5216 5214 5212 5210 5208 5207 5206 5206 5206 5206 5207 5208 5209 5211
5476 5465 5454 5443 5433 5423 5413 5403 5395 5386 5370 5352 5337 5323 5312 5302 5292 5282 5274 5266 5259 5252 5246 5240 5233 5228 5224 5221 5219 5217 5215 5213 5210 5208 5207 5206 5206 5206 5207 5208 5209 5210 5212
5458 5448 5438 5429 5419 5409 5398 5387 5376 5366 5356 5343 5328 5314 5303 5294 5284 5274 5265 5259 5253 5247 5241 5235 5230 5226 5223 5222 5220 5218 5216 5213 5211 5209 5208 5208 5208 5208 5209 5210 5211 5213 5215
5443 5434 5425 5416 5406 5395 5384 5373 5361 5349 5337 5326 5315 5305 5294 5285 5276 5267 5258 5252 5247 5242 5237 5232 5228 5226 5224 5223 5222 5219 5216 5214 5212 5211 5211 5211 5211 5211 5212 5213 5215 5216 5217
5428 5419 5410 5401 5392 5381 5370 5358 5347 5335 5323 5312 5302 5293 5284 5276 5268 5260 5253 5247 5242 5238 5234 5230 5228 5227 5226 5225 5223 5220 5218 5216 5215 5215 5215 5215 5215 5216 5217 5217 5218 5218 5218
5415 5406 5397 5387 5377 5366 5355 5344 5332 5321 5310 5299 5291 5281 5273 5266 5259 5253 5247 5242 5238 5235 5232 5230 5229 5229 5228 5227 5225 5223 5221 5221 5220 5220 5220 5220 5220 5220 5220 5220 5219 5218 5217
5400 5392 5383 5374 5363 5353 5341 5329 5318 5306 5296 5288 5281 5273 5265 5257 5251 5246 5242 5239 5236 5233 5231 5230 5231 5231 5231 5229 5228 5227 5226 5226 5226 5226 5225 5225 5225 5224 5223 5221 5219 5216 5214
5386 5378 5369 5359 5349 5338 5327 5315 5304 5294 5285 5277 5270 5264 5257 5250 5245 5242 5239 5237 5234 5233 5232 5233 5234 5234 5233 5232 5232 5232 5232 5232 5232 5232 5231 5230 5228 5226 5224 5221 5217 5214 5210
5372 5363 5354 5345 5335 5324 5313 5301 5291 5282 5274 5268 5261 5255 5249 5243 5240 5238 5236 5235 5234 5233 5234 5236 5237 5237 5237 5237 5237 5238 5238 5239 5239 5238 5236 5234 5231 5228 5224 5220 5215 5211 5207
5357 5348 5339 5330 5319 5308 5297 5287 5279 5271 5265 5258 5252 5247 5242 5238 5236 5235 5235 5234 5235 5236 5238 5239 5240 5241 5242 5242 5243 5244 5245 5246 5245 5243 5241 5238 5234 5230 5225 5220 5215 5210 5205
5342 5333 5323 5313 5303 5292 5283 5275 5268 5261 5255 5249 5244 5239 5236 5234 5233 5234 5234 5235 5237 5239 5241 5243 5245 5246 5247 5249 5251 5252 5253 5252 5251 5248 5246 5242 5238 5233 5227 5222 5217 5212 5208